STARLINK-1301 (45361 NORAD) Tracking and Keplerian Element Data

This shows tracking and keplerian element data for the satellite.

Feedback or suggestion? Click here.




ElementValue
Catalog45361
NameSTARLINK-1301
Epoch Orbit175
Epoch Day188.91667824
Epoch Year2020
RAAN87.1362
Inclination53.0069
Eccentricity0.0001775
Argument of Perigee80.5431
Mean Anonmoly38.0032
Mean Motion15.05581882
Decay Rate-0.00031883
L11 45361U 20019B 20188.91667824 -.00031883 00000-0 -21787-2 0 9995
L22 45361 53.0069 87.1362 0001775 80.5431 38.0032 15.05581882 1754

Live tracking and technical data element details for STARLINK-1301 (NORAD 45361). STARLINK-1301 can be tracked NOW for your location showing map with azimuth and elevation plus other details from your city location.

Track the satellite on the map from your city or location and see movement details for azimuth, elevation, latitude, longitude, range, height, and movement on the map or in text.







IsCatalogInMostPopularTable: catalog: 45361, numindb: 24
Update: records affected: 1



GetName: 45361 STARLINK-1301

Hit Count: updated at: Wed, 08 Jul 2020 05:33:51 GMT